Regional Weather Roundup
Issued by NWS Sioux Falls, SD

Home | Current Version | Previous Version | Graphics & Text | Print | Product List | Glossary On
Versions: 1 2 3 4 5 6 7 8 9 10 11 12 13 14 15 16 17 18 19 20 21 22 23 24 25 26 27 28 29 30 31 32 33 34 35 36 37 38 39 40 41 42 43 44 45 46 47 48 49 50
000
ASUS43 KFSD 190802
RWRFSD

WEATHER ROUNDUP FOR SE SOUTH DAKOTA/SW MINNESOTA/NW IOWA
NATIONAL WEATHER SERVICE SIOUX FALLS SD
200 AM CST MON FEB 19 2018

NOTE: "FAIR" INDICATES FEW OR NO CLOUDS BELOW 12,000 FEET WITH NO
SIGNIFICANT WEATHER AND OR OBSTRUCTIONS TO VISIBILITY.


SDZ038>040-050-052>070-190900-
SOUTHEAST SOUTH DAKOTA

CITY           SKY/WX    TMP DP  RH WIND       PRES   REMARKS
BROOKINGS      FLURRIES  12   8  84 N21G31    29.81S WCI  -7
CHAMBERLAIN    LGT SNOW  13   9  86 NW17G23   29.98R WCI  -4
HURON          LGT SNOW  11   7  84 N22G30    29.93R FOG     WCI  -8
MADISON        PTSUNNY   14  14 100 N17G25    29.82R WCI  -3
MITCHELL       CLOUDY    14   9  80 N18       29.94R WCI  -3
SIOUX FALLS    CLOUDY    18  13  80 N20G29    29.81R WCI   2
WINNER         LGT SNOW  12   7  80 N23       29.93R WCI  -7
YANKTON        CLOUDY    20  15  81 N21G29    29.82R WCI   4
$$

MNZ071-072-080-081-089-090-097-098-190900-
SOUTHWEST MINNESOTA

CITY           SKY/WX    TMP DP  RH WIND       PRES   REMARKS
JACKSON        CLOUDY    21  18  86 VRB16G22  29.75R WCI   7
LUVERNE        CLOUDY    18  12  79 N20G25    29.74F WCI   1
MARSHALL       CLOUDY    15  10  80 N22G29    29.86R WCI  -3
MONTEVIDEO     LGT SNOW  16  10  79 N23G31    29.88R WCI  -2
PIPESTONE      PTCLDY    14  10  85 NE15G25   29.79R WCI  -1
REDWOOD FALLS  CLOUDY    21  16  81 N13       29.83R WCI   9
TRACY          CLOUDY    17  14  88 N20G25    29.83R WCI   0
WINDOM         CLOUDY    21   7  53 N23       29.78R WCI   5
WORTHINGTON    CLOUDY    18  15  88 N25G33    29.73F WCI   0
$$

IAZ001>003-012>014-020>022-031-032-NEZ013-014-SDZ071-190900-
NORTHWEST IOWA

CITY           SKY/WX    TMP DP  RH WIND       PRES   REMARKS
CHEROKEE       CLOUDY    25  21  85 N12G24    29.71S WCI  14
DENISON        MIX PCPN  34  32  93 NE14      29.66S WCI  24
ESTHERVILLE    CLOUDY    22  18  85 N22       29.73S WCI   6
LE MARS        CLOUDY    23  19  86 N22G30    29.74R WCI   8
ORANGE CITY    CLOUDY    23  21  93 NE15G26   29.72S WCI  10
SHELDON        CLOUDY    21  19  93 NE20G29   29.73R WCI   6
SIOUX CITY     CLOUDY    26  21  81 N17       29.73R WCI  13
SPENCER        CLOUDY    24  18  77 N22       29.73S WCI   9
STORM LAKE     CLOUDY    27  23  86 NE23      29.67F WCI  12
$$

ABBREVIATIONS USED IN REMARKS
   TC - TEMPERATURE IN CELSIUS
  WCI - WIND CHILL INDEX
   HX - HEAT INDEX
  VSB - VISIBILITY




USA.gov is the U.S. government's official web portal to all federal, state and local government web resources and services.